• In Germany
  • List of Countries
  • For 7 days
  • Water Temperature
  • Satellite Maps
  • Weather Map
  • Weather Widgets
  • user-avatar
    Login

    Hourly Weather Kondratovsk

    Today, 23 October, Tuesday

    Time Temperature Precipitation Wind Pressure Humidity
    00:00 +3°C° 0 mm 4 mps 745 mmHg 87%
    01:00 +3°C° 0 mm 4 mps 744 mmHg 89%
    02:00 +1°C° 0 mm 4 mps 743 mmHg 91%
    03:00 +3°C° 0.5 mm 4 mps 743 mmHg 92%
    04:00 +3°C° 0.5 mm 4 mps 742 mmHg 92%
    05:00 +3°C° 0.5 mm 4 mps 742 mmHg 93%
    06:00 +3°C° 0.2 mm 4 mps 742 mmHg 93%
    07:00 +4°C° 0.2 mm 3 mps 741 mmHg 94%
    08:00 +4°C° 0.2 mm 3 mps 741 mmHg 94%
    09:00 +5°C° 0 mm 3 mps 741 mmHg 87%
    10:00 +7°C° 0 mm 3 mps 740 mmHg 80%
    11:00 +7°C° 0 mm 3 mps 740 mmHg 73%
    12:00 +8°C° 0 mm 3 mps 739 mmHg 70%
    13:00 +7°C° 0 mm 4 mps 738 mmHg 67%
    14:00 +7°C° 0 mm 4 mps 738 mmHg 64%
    15:00 +6°C° 0 mm 4 mps 737 mmHg 67%
    16:00 +6°C° 0 mm 4 mps 736 mmHg 71%
    17:00 +5°C° 0 mm 3 mps 735 mmHg 74%
    18:00 +5°C° 0.1 mm 4 mps 734 mmHg 75%
    19:00 +5°C° 0.1 mm 5 mps 733 mmHg 77%
    20:00 +3°C° 0.1 mm 6 mps 732 mmHg 79%
    21:00 +3°C° 0.3 mm 6 mps 730 mmHg 80%
    22:00 +3°C° 0.3 mm 6 mps 729 mmHg 81%
    23:00 +3°C° 0.3 mm 7 mps 728 mmHg 82%

    Tomorrow, 24 October, Wednesday

    Time Temperature Precipitation Wind Pressure Humidity
    00:00 +3°C° 0.4 mm 7 mps 727 mmHg 84%
    01:00 +3°C° 0.4 mm 7 mps 725 mmHg 85%
    02:00 +3°C° 0.4 mm 7 mps 724 mmHg 86%
    03:00 +3°C° 0.9 mm 6 mps 723 mmHg 87%
    04:00 +3°C° 0.9 mm 5 mps 722 mmHg 89%
    05:00 +3°C° 0.9 mm 5 mps 721 mmHg 90%
    06:00 +4°C° 0.4 mm 4 mps 721 mmHg 91%
    07:00 +5°C° 0.4 mm 4 mps 721 mmHg 91%
    08:00 +5°C° 0.4 mm 3 mps 720 mmHg 91%
    09:00 +5°C° 0.3 mm 3 mps 720 mmHg 89%
    10:00 +7°C° 0.3 mm 3 mps 720 mmHg 86%
    11:00 +7°C° 0.3 mm 3 mps 720 mmHg 83%
    12:00 +7°C° 0.5 mm 3 mps 721 mmHg 81%
    13:00 +8°C° 0.5 mm 3 mps 721 mmHg 79%
    14:00 +8°C° 0.5 mm 3 mps 721 mmHg 76%
    15:00 +7°C° 0.3 mm 3 mps 721 mmHg 80%
    16:00 +5°C° 0.3 mm 3 mps 722 mmHg 83%
    17:00 +4°C° 0.3 mm 3 mps 722 mmHg 86%
    18:00 +4°C° 0 mm 3 mps 722 mmHg 87%
    19:00 +4°C° 0 mm 4 mps 723 mmHg 89%
    20:00 +3°C° 0 mm 4 mps 723 mmHg 90%
    21:00 +3°C° 0 mm 4 mps 723 mmHg 91%
    22:00 +3°C° 0 mm 4 mps 724 mmHg 92%
    23:00 +1°C° 0 mm 4 mps 724 mmHg 93%

    Day after tomorrow, 25 October, Thursday

    Time Temperature Precipitation Wind Pressure Humidity
    00:00 +3°C° 0 mm 4 mps 724 mmHg 93%
    01:00 +2°C° 0 mm 5 mps 724 mmHg 92%
    02:00 +2°C° 0 mm 5 mps 724 mmHg 91%
    03:00 +2°C° 0.1 mm 5 mps 725 mmHg 90%
    04:00 +2°C° 0.1 mm 6 mps 725 mmHg 88%
    05:00 +3°C° 0.1 mm 6 mps 725 mmHg 86%
    06:00 +2°C° 0.1 mm 7 mps 725 mmHg 85%
    07:00 +2°C° 0.1 mm 7 mps 726 mmHg 83%
    08:00 +2°C° 0.1 mm 7 mps 726 mmHg 82%
    09:00 +2°C° 0.2 mm 7 mps 726 mmHg 80%
    10:00 +2°C° 0.2 mm 7 mps 727 mmHg 78%
    11:00 +2°C° 0.2 mm 7 mps 727 mmHg 76%
    12:00 +2°C° 0 mm 7 mps 728 mmHg 75%
    13:00 +2°C° 0 mm 7 mps 728 mmHg 74%
    14:00 +2°C° 0 mm 7 mps 728 mmHg 73%
    15:00 +2°C° 0 mm 6 mps 728 mmHg 74%
    16:00 +1°C° 0 mm 6 mps 729 mmHg 74%
    17:00 +1°C° 0 mm 5 mps 729 mmHg 75%
    18:00 +1°C° 0 mm 5 mps 729 mmHg 75%
    19:00 +1°C° 0 mm 4 mps 729 mmHg 76%
    20:00 +1°C° 0 mm 4 mps 730 mmHg 77%
    21:00 +1°C° 0 mm 4 mps 730 mmHg 79%
    22:00 0°C° 0 mm 4 mps 730 mmHg 80%
    23:00 +1°C° 0 mm 3 mps 731 mmHg 82%

    26 October, Friday

    Time Temperature Precipitation Wind Pressure Humidity
    00:00 +1°C° 0 mm 3 mps 731 mmHg 85%
    01:00 0°C° 0 mm 3 mps 732 mmHg 87%
    02:00 0°C° 0 mm 3 mps 732 mmHg 89%
    03:00 -1°C° 0 mm 3 mps 733 mmHg 91%
    04:00 -1°C° 0 mm 3 mps 733 mmHg 93%
    05:00 -1°C° 0 mm 3 mps 734 mmHg 94%
    06:00 -1°C° 0 mm 3 mps 734 mmHg 94%
    07:00 -1°C° 0 mm 4 mps 735 mmHg 93%
    08:00 -1°C° 0 mm 4 mps 735 mmHg 92%
    09:00 0°C° 0 mm 4 mps 735 mmHg 87%
    10:00 +1°C° 0 mm 5 mps 736 mmHg 82%
    11:00 +2°C° 0 mm 5 mps 736 mmHg 77%
    12:00 +3°C° 0.1 mm 5 mps 736 mmHg 76%
    13:00 +3°C° 0.1 mm 5 mps 736 mmHg 74%
    14:00 +3°C° 0.1 mm 5 mps 737 mmHg 73%
    15:00 +3°C° 0 mm 4 mps 737 mmHg 77%
    16:00 +3°C° 0 mm 3 mps 737 mmHg 80%
    17:00 +2°C° 0 mm 3 mps 738 mmHg 84%
    18:00 +2°C° 0 mm 3 mps 738 mmHg 86%
    19:00 +1°C° 0 mm 3 mps 739 mmHg 88%
    20:00 +1°C° 0 mm 3 mps 739 mmHg 90%
    21:00 +1°C° 0 mm 3 mps 740 mmHg 92%
    22:00 +1°C° 0 mm 3 mps 740 mmHg 93%
    23:00 0°C° 0 mm 3 mps 740 mmHg 94%

    27 October, Saturday

    Time Temperature Precipitation Wind Pressure Humidity
    00:00 0°C° 0 mm 3 mps 741 mmHg 95%
    01:00 +1°C° 0 mm 2 mps 741 mmHg 95%
    02:00 +1°C° 0 mm 2 mps 741 mmHg 95%
    03:00 +1°C° 0 mm 2 mps 741 mmHg 96%
    04:00 0°C° 0 mm 3 mps 741 mmHg 96%
    05:00 0°C° 0 mm 3 mps 741 mmHg 96%
    06:00 0°C° 0 mm 3 mps 741 mmHg 96%
    07:00 0°C° 0 mm 4 mps 741 mmHg 96%
    08:00 0°C° 0 mm 4 mps 741 mmHg 95%
    09:00 +2°C° 0 mm 5 mps 741 mmHg 90%
    10:00 +3°C° 0 mm 5 mps 741 mmHg 85%
    11:00 +4°C° 0 mm 6 mps 740 mmHg 80%
    12:00 +5°C° 0.2 mm 6 mps 740 mmHg 81%
    13:00 +5°C° 0.2 mm 6 mps 740 mmHg 81%
    14:00 +5°C° 0.2 mm 6 mps 739 mmHg 81%
    15:00 +5°C° 0 mm 6 mps 739 mmHg 80%
    16:00 +5°C° 0 mm 6 mps 739 mmHg 78%
    17:00 +5°C° 0 mm 6 mps 738 mmHg 76%
    18:00 +6°C° 0 mm 5 mps 738 mmHg 77%
    19:00 +6°C° 0 mm 5 mps 738 mmHg 79%
    20:00 +5°C° 0 mm 5 mps 738 mmHg 80%
    21:00 +5°C° 0.1 mm 4 mps 738 mmHg 83%
    22:00 +5°C° 0.1 mm 4 mps 738 mmHg 86%
    23:00 +5°C° 0.1 mm 3 mps 738 mmHg 90%

    28 October, Sunday

    Time Temperature Precipitation Wind Pressure Humidity
    00:00 +7°C° 0.2 mm 3 mps 738 mmHg 92%
    01:00 +7°C° 0.2 mm 3 mps 738 mmHg 94%
    02:00 +7°C° 0.2 mm 3 mps 737 mmHg 96%
    03:00 +7°C° 0.3 mm 3 mps 737 mmHg 96%
    04:00 +7°C° 0.3 mm 3 mps 737 mmHg 97%
    05:00 +8°C° 0.3 mm 3 mps 737 mmHg 97%
    06:00 +8°C° 1 mm 3 mps 737 mmHg 96%
    07:00 +8°C° 1 mm 3 mps 737 mmHg 96%
    08:00 +8°C° 1 mm 3 mps 737 mmHg 95%
    09:00 +7°C° 0.7 mm 4 mps 736 mmHg 94%
    10:00 +8°C° 0.7 mm 4 mps 736 mmHg 93%
    11:00 +8°C° 0.7 mm 4 mps 736 mmHg 92%
    12:00 +9°C° 0.3 mm 5 mps 735 mmHg 88%
    13:00 +10°C° 0.3 mm 5 mps 735 mmHg 84%
    14:00 +11°C° 0.3 mm 6 mps 734 mmHg 80%
    15:00 +11°C° 0.4 mm 6 mps 734 mmHg 82%
    16:00 +11°C° 0.4 mm 6 mps 734 mmHg 84%
    17:00 +11°C° 0.4 mm 6 mps 734 mmHg 86%
    18:00 +11°C° 0.1 mm 6 mps 735 mmHg 85%
    19:00 +11°C° 0.1 mm 6 mps 735 mmHg 84%
    20:00 +11°C° 0.1 mm 6 mps 735 mmHg 84%
    21:00 +10°C° 0 mm 7 mps 736 mmHg 84%
    22:00 +9°C° 0 mm 7 mps 737 mmHg 85%
    23:00 +6°C° 0 mm 7 mps 738 mmHg 86%
    Show more